Location: B�rgermoos
(47.6500°N, 9.0667°E)
Time: 02:19:56
(UTC+00:00)

Tiros 1 - Pass Details

Date: 12 August 2021
Orbit: 630 x 663 km, 48.4° (Epoch: 16 September)

Event Time Altitude Azimuth Distance (km) Brightness Sun altitude
Rises 14:17:45 0° 246° (WSW) 2,989 11.4 42.1°
Reaches altitude 10° 14:20:06 10° 245° (WSW) 2,078 10.9 41.8°
Maximum altitude 14:24:54 72° 161° (SSE) 696 8.1 41.1°
Drops below altitude 10° 14:29:41 10° 78° (ENE) 2,076 9.4 40.3°
Sets 14:32:01 0° 76° (ENE) 2,986 10.1 40.0°
